Torna al catalogo

COSMOS 539

AttivoMilitareLEO
NORAD 6319·PAYLOAD·🇷🇺 Russia

Lanciato Dec 21, 1972 da Plesetsk Cosmodrome

Loading…

Prossimi Passaggi (prossime 24 ore)

TLE

AggiornatoSource: Space-Track

Epoca: Sep 14, 2026, 11:07 UTC

1 06319U 72102A   26257.46325922  .00000006  00000-0  10652-3 0  9999
2 06319  74.0173 144.6065 0024358 317.1472 216.3307 12.75429675501552

Traccia COSMOS 539 in tempo reale con AllMySat

Download on the App Store